Starlink 2633

operational
NORAD ID: 48435 Int'l Des: 2021-040 Owner: SPXS Country: US Constellation: starlink
LEOCIRCULARSTARLINK_TYPE

Über Starlink 2633

Beschreibung wird geladen...

Live-Position

3D-Globus wird geladen...

Nächste Überflüge

Höhenverlauf

Altitude vs Time

uPlot chart will show altitude changes over time

Zweizeiliger Elementsatz

1 48435U 21040H 25299.68236058 .00002028 00000-0 15505-3 0 9997
2 48435 53.0564 48.2101 0001429 98.1831 261.9321 15.06391127246631
Epoch: 26. Okt. 2025 • Age: 9 hours

Aktueller Status

Höhe 555.7 km
Geschwindigkeit 7.58 km/s
Subsatellitenpunkt -26.51°S, 37.86°W
Startdatum 9. Mai 2021
Alter 4.4 years
Typ internet

Technische Details

Klassifizierung Payload
Masse 260.00 kg
Trockenmasse 248.00 kg
Gesamtmasse 260.00 kg
Länge 0.20 m
Durchmesser 2.80 m
Spannweite 9.00 m
Form Box + pan
Hersteller SPXS
Bus-Typ Starlink
Phasenstatus In Orbit
Besitzer/Staat SPXS/US

Große Konstellationen

Loading constellations...